Preview of NWS' New Version of Forecast
This preview is not operational and should not be used for support decisions.
Latest weather observations around

Vaiden Fld Airport (KA08)

Using International System of Units (Switch to English Units)
Date/ Time (CST) Wind (kph) Vis. (km) Weather Sky Cond. Temp (°C) Rel. Humidity Wind Chill (°C) Heat Index (°C) Pressure Precip. (cm)
Air Dwpt 6 hour Altimeter (hPa) Sea level (hPa) 1 hr 3 hr 6 hr
Max Min
Feb 22 06:15 Calm 0.8 Fog OVC002 17 17     100%     1027.1        
Feb 22 05:55 SSW 9 2.01 Fog/Mist OVC004 18 18     100%     1027.1        
Feb 22 05:35 S 8 2.82 Fog/Mist OVC004 18 18     100%     1027.1        
Feb 22 05:15 SSW 9 1.61 Fog/Mist OVC006 18 18     100%     1026.8        
Feb 22 04:55 S 9 3.22 Fog/Mist OVC006 18 18     100%     1026.8        
Feb 22 04:35 S 9 2.82 Fog/Mist BKN008 OVC016 18 18     100%     1026.8        
Feb 22 04:15 S 9 6.44 Fog/Mist BKN008 BKN018 BKN027 18 18     100%     1026.4        
Feb 22 03:55 S 11 8.05 Fog/Mist SCT007 18 18     100%     1026.4        
Feb 22 03:35 S 13 11.27 Clear CLR 18 18     100%     1026.4        
Feb 22 03:15 SSE 9 11.27 Partly Cloudy SCT010 SCT014 SCT021 19 19     100%     1026.4        
Feb 22 02:55 S 13 11.27 Cloudy OVC010 19 19     100%     1026.4        
Feb 22 02:35 S 17 11.27 Cloudy OVC010 19 19     100%     1026.4        
Feb 22 02:15 S 15 11.27 Cloudy OVC010 20 20     99%     1026.4        
Feb 22 01:55 S 18 11.27 Cloudy BKN010 OVC026 20 20     99%     1026.1        
Feb 22 01:35 S 18 11.27 Mostly Cloudy SCT010 BKN027 BKN033 20 20     99%     1026.1        
Feb 22 01:15 S 21 11.27 Partly Cloudy SCT012 SCT027 SCT034 20 20     98%     1026.1        
Feb 22 00:55 S 22 11.27 Mostly Cloudy BKN012 20 20     98%     1026.4        
Feb 22 00:35 S 21 11.27 Clear CLR 20 20     98%     1026.4        
Feb 22 00:15 S 21 16.09 Partly Cloudy SCT014 SCT033 SCT042 20 20     96%     1026.4        
Feb 21 23:55 S 18 16.09 Partly Cloudy SCT014 SCT033 SCT042 20 20     95%     1026.4        
Feb 21 23:35 S 18 16.09 Partly Cloudy SCT055 21 20     94%     1026.4        
Feb 21 23:15 S 22 16.09 Mostly Cloudy SCT034 SCT040 BKN055 21 20     93%     1026.4        
Feb 21 22:55 S 18 16.09 Partly Cloudy SCT034 SCT042 21 19     91%     1026.4        
Feb 21 22:35 S 21 16.09 Clear CLR 21 19     91%     1026.4        
Feb 21 22:15 S 21 16.09 Clear CLR 21 19     89%     1026.1        
Feb 21 21:55 S 21 16.09 Clear CLR 21 19     87%   22 1026.1        
Feb 21 21:35 S 18 16.09 Clear CLR 21 19     86%   22 1026.1        
Feb 21 21:15 S 21 16.09 Clear CLR 22 19     83%   22 1025.7        
Feb 21 20:55 S 22 16.09 Clear CLR 22 18     81%   22 1025.4        
Feb 21 20:35   16.09 Clear CLR 22 18     80%   23 1025.4        
Feb 21 20:15 S 26 16.09 Clear CLR 23 18     77%   23 1025.1        
Feb 21 19:55   16.09 Clear CLR 23 18     75%   23 1025.1        
Feb 21 19:35 S 26 16.09 Clear CLR 23 18     73%   23 1024.7        
Feb 21 19:15 S 22 16.09 Clear CLR 23 18     73%   23 1024.4        
Feb 21 18:55 S 18 16.09 Clear CLR 24 18     69%   24 1024.4        
Feb 21 18:35 S 18 16.09 Clear CLR 24 18     68%   24 1024.1        
Feb 21 18:15 S 21 16.09 Partly Cloudy SCT090 24 17     66%   25 1024.1        
Feb 21 17:55 S 17 16.09 Partly Cloudy SCT090 25 17     64%   25 1023.7        
Feb 21 17:35 S 24 16.09 Clear CLR 25 17     63%   25 1023.7        
Feb 21 17:15 S 26 16.09 Partly Cloudy SCT085 26 17     59%   26 1023.4        
Feb 21 16:55 S 21 16.09 Partly Cloudy SCT085 26 17     60%   26 1023        
Feb 21 16:35 S 24 16.09 Partly Cloudy SCT047 SCT055 SCT080 27 18     57%   28 1023        
Feb 21 16:15 SSE 18 16.09 Mostly Cloudy SCT049 BKN055 BKN070 27 18     57%   28 1023        
Feb 21 15:55 S 28 16.09 Partly Cloudy SCT049 SCT080 27 18     56%   28 1023        
Feb 21 15:35 SSE 22 16.09 Partly Cloudy SCT047 SCT090 27 18     56%   28 1023        
Feb 21 15:15 SSE 24 16.09 Cloudy SCT047 OVC090 28 18     56%   29 1023        
Feb 21 14:55 S 30 16.09 Partly Cloudy SCT090 27 18     57%   28 1023.4        
Feb 21 14:35 SSE 26 16.09 Mostly Cloudy SCT048 SCT055 BKN090 28 18     56%   28 1023.4        
Feb 21 14:15 SSE 18 16.09 Mostly Cloudy SCT046 SCT070 BKN090 27 18     57%   28 1023.7        
Feb 21 13:55 S 13 16.09 Mostly Cloudy BKN070 27 18     59%   28 1024.1        
Feb 21 13:35   16.09 Partly Cloudy SCT041 SCT085 27 18     58%   28 1024.4        
Feb 21 13:15 S 30 16.09 Mostly Cloudy SCT040 SCT050 BKN070 27 18     59%   28 1024.4        
Feb 21 12:55 S 21 16.09 Cloudy SCT050 BKN070 OVC080 25 18     65%   26 1024.7        
Feb 21 12:35 S 32 16.09 Mostly Cloudy and Windy SCT035 SCT041 BKN070 26 19     66%   26 1025.1        
Feb 21 12:15 SSW 28 16.09 Partly Cloudy SCT035 SCT048 SCT060 26 18     63%   26 1025.4        
Feb 21 11:55 S 26 16.09 Partly Cloudy SCT033 SCT039 SCT048 26 19     67%   26 1025.7        
Feb 21 11:35 S 28 16.09 Partly Cloudy SCT029 SCT035 SCT048 26 19     69%   26 1026.1        
Feb 21 11:15 S 26 16.09 Mostly Cloudy SCT026 SCT031 BKN048 24 19     74%   25 1026.4        
Feb 21 10:55 S 28 16.09 Mostly Cloudy SCT026 BKN031 BKN043 25 19     71%   25 1026.8        
Feb 21 10:35 S 18 16.09 Cloudy BKN023 BKN030 OVC044 24 20     79%   24 1027.1        
Feb 21 10:15 S 18 16.09 Mostly Cloudy SCT021 BKN026 BKN031 23 20     80%   24 1027.1        
Feb 21 09:55 S 21 16.09 Cloudy SCT017 SCT024 OVC031 23 20     86%   23 1027.1        
Feb 21 09:35 S 18 16.09 Cloudy BKN014 OVC022 22 20     90%   22 1027.4        
Feb 21 09:15 S 22 16.09 Cloudy BKN014 OVC019 21 20     91%   22 1027.4        
Feb 21 08:55 S 21 16.09 Cloudy OVC012 21 20     92%   22 1027.1        
Feb 21 08:35   16.09 Cloudy OVC010 21 20     93%     1027.1        
Feb 21 08:15   16.09 Cloudy OVC010 21 20     95%     1026.8        
Feb 21 07:55 S 18 16.09 Cloudy OVC008 20 20     99%     1026.8        
Feb 21 07:35 SSE 15 16.09 Cloudy OVC008 20 20     100%     1026.4        
Feb 21 07:15 SSE 11 16.09 Cloudy OVC010 20 20     100%     1026.1        
Feb 21 06:55 SSE 13 16.09 Cloudy OVC012 19 19     100%     1026.1        
Feb 21 06:35 S 15 16.09 Mostly Cloudy BKN012 BKN065 19 19     100%     1025.7        
Feb 21 06:15 SSE 17 16.09 Partly Cloudy SCT065 19 19     100%     1025.7        
Feb 21 05:55 S 17 16.09 Clear CLR 19 19     100%     1025.4        
Feb 21 05:35 S 15 16.09 Partly Cloudy SCT070 19 19     100%     1025.1        
Feb 21 05:15 S 13 16.09 Mostly Cloudy BKN070 19 19     100%     1025.1        
Feb 21 04:55 S 17 16.09 Mostly Cloudy BKN070 19 19     100%     1025.1        
Feb 21 04:35 SSE 15 16.09 Partly Cloudy SCT028 SCT060 19 19     100%     1025.1        
Feb 21 04:15 S 15 16.09 Partly Cloudy SCT028 SCT050 19 19     100%     1025.1        
Feb 21 03:55 S 15 16.09 Clear CLR 19 19     100%     1025.1        
Feb 21 03:35 S 15 16.09 Partly Cloudy SCT080 19 19     100%     1025.1        
Feb 21 03:15 S 13 16.09 Mostly Cloudy BKN080 19 19     100%     1025.1        
Feb 21 02:55 S 15 16.09 Partly Cloudy SCT080 19 19     100%     1025.1        
Feb 21 02:35 S 13 16.09 Clear CLR 19 19     100%     1025.1        
Feb 21 02:15 S 15 16.09 Partly Cloudy SCT013 20 20     100%     1025.1        
Feb 21 01:55 SSE 11 16.09 Cloudy OVC013 20 20     96%     1025.1        
Feb 21 01:35 S 18 16.09 Cloudy OVC015 20 20     98%     1025.4        
Feb 21 01:15 S 21 16.09 Mostly Cloudy SCT015 BKN029 20 20     98%     1025.4        
Feb 21 00:55 S 21 16.09 Partly Cloudy SCT015 SCT029 20 20     95%     1025.1        
Feb 21 00:35 S 21 16.09 Mostly Cloudy BKN015 BKN027 21 20     92%     1025.1        
Feb 21 00:15 S 21 16.09 Cloudy SCT019 OVC027 21 20     91%     1025.1        
Feb 20 23:55 S 21 16.09 Cloudy OVC019 21 19     91%     1024.7        
Feb 20 23:35 SSE 18 16.09 Cloudy OVC017 21 19     91%     1024.7        
Feb 20 23:15 S 15 16.09 Cloudy OVC017 21 19     90%     1024.7        
Feb 20 22:55 SSE 11 16.09 Cloudy BKN019 BKN060 OVC075 21 19     90%     1024.7        
Feb 20 22:35 S 15 16.09 Mostly Cloudy BKN075 21 19     89%     1024.4        
Feb 20 22:15 SSE 13 16.09 Mostly Cloudy BKN065 21 19     88%     1024.4        
Feb 20 21:55 SSE 13 16.09 Mostly Cloudy BKN065 BKN110 21 19     87%   22 1024.4        
Feb 20 21:35 SSE 15 16.09 Mostly Cloudy BKN065 BKN110 21 19     87%   22 1024.1        
Feb 20 21:15 SSE 17 16.09 Mostly Cloudy SCT065 BKN075 22 19     84%   22 1024.1        
Feb 20 20:55 S 21 16.09 Cloudy OVC065 22 19     83%   23 1023.7        
Feb 20 20:35 S 22 16.09 Cloudy OVC065 22 19     81%   23 1023.7        
Feb 20 20:15 S 21 16.09 Cloudy OVC075 22 19     79%   23 1023.7        
Feb 20 19:55 SSE 15 16.09 Cloudy OVC085 22 18     78%   23 1023.4        
Feb 20 19:35 S 18 16.09 Mostly Cloudy BKN085 22 18     77%   23 1023.4        
Feb 20 19:15 S 17 16.09 Clear CLR 22 18     76%   23 1023.4        
Feb 20 18:55 SSE 11 16.09 Clear CLR 22 17     73%   23 1023        
Feb 20 18:35 SSE 13 16.09 Clear CLR 23 17     71%   23 1022.7        
Feb 20 18:15 S 22 16.09 Partly Cloudy SCT085 23 17     69%   23 1022.7        
Feb 20 17:55   16.09 Mostly Cloudy BKN085 24 17     65%   24 1022.7        
Feb 20 17:35 S 24 16.09 Mostly Cloudy BKN085 24 17     64%   24 1022.7        
Feb 20 17:15 S 26 16.09 Mostly Cloudy BKN085 25 17     62%   25 1022.7        
Feb 20 16:55 S 18 16.09 Partly Cloudy SCT085 25 17     59%   25 1022.4        
Feb 20 16:35 S 30 16.09 Partly Cloudy SCT085 26 17     58%   26 1022        
Feb 20 16:15   16.09 Partly Cloudy SCT080 26 17     59%   26 1022        
Feb 20 15:55 SSE 22 16.09 Mostly Cloudy BKN080 26 17     57%   26 1022        
Feb 20 15:35 SSE 24 16.09 Mostly Cloudy BKN080 27 17     56%   28 1021.7        
Feb 20 15:15   16.09 Mostly Cloudy BKN080 27 16     53%   27 1021.7        
Feb 20 14:55 S 30 16.09 Mostly Cloudy SCT070 BKN080 27 17     53%   28 1021.7        
Feb 20 14:35 S 22 16.09 Cloudy SCT070 OVC080 27 17     56%   27 1022        
Feb 20 14:15   16.09 Mostly Cloudy BKN080 26 17     56%   26 1022        
Feb 20 13:55 S 33 16.09 Partly Cloudy and Windy SCT049 SCT060 SCT070 27 17     54%   28 1022        
Feb 20 13:35 S 32 16.09 Mostly Cloudy and Windy SCT047 BKN070 26 17     56%   27 1022.4        
Feb 20 13:15 SSE 28 16.09 Mostly Cloudy SCT045 SCT060 BKN070 26 17     58%   27 1022.7        
Feb 20 12:55 S 30 16.09 Mostly Cloudy SCT047 SCT060 BKN070 26 17     59%   26 1023        
Feb 20 12:35   16.09 Mostly Cloudy SCT044 BKN050 BKN070 26 17     58%   26 1023.4        
Feb 20 12:15 SSE 30 16.09 Mostly Cloudy BKN042 BKN050 25 17     62%   25 1023.4        
Feb 20 11:55 SSE 28 16.09 Mostly Cloudy BKN039 25 17     62%   25 1023.7        
Feb 20 11:35   16.09 Mostly Cloudy BKN037 25 17     63%   25 1024.1        
Feb 20 11:15   16.09 Mostly Cloudy BKN035 24 17     65%   25 1024.4        
Feb 20 10:55 S 26 16.09 Partly Cloudy SCT033 24 17     67%   24 1024.7        
Feb 20 10:35 SSE 17 16.09 Clear CLR 23 17     69%   24 1024.7        
Feb 20 10:15 SE 17 16.09 Clear CLR 23 17     71%   23 1025.1        
Feb 20 09:55 SE 15 16.09 Clear CLR 22 17     74%   22 1025.1        
Feb 20 09:35 SSE 18 16.09 Clear CLR 21 17     79%     1025.1        
Feb 20 09:15 SSE 15 16.09 Clear CLR 20 17     82%     1025.1        
Feb 20 08:55 SSE 18 16.09 Clear CLR 19 16     83%     1025.1        
Feb 20 08:35 S 15 16.09 Partly Cloudy SCT050 18 16     86%     1025.1        
Feb 20 08:15 SSE 13 16.09 Clear CLR 18 16     88%     1025.1        
Feb 20 07:55 S 11 16.09 Partly Cloudy SCT046 17 16     93%     1024.7        
Feb 20 07:35 SSE 9 16.09 Partly Cloudy SCT046 16 16     98%     1024.4        
Feb 20 07:15 SE 5 16.09 Partly Cloudy SCT050 15 15     100%     1024.4        
Feb 20 06:55 SE 5 11.27 Partly Cloudy SCT050 15 15     100%     1024.4        
Feb 20 06:35 Calm 16.09 Clear CLR 15 15     100%     1024.1        
Feb 20 06:15 SE 5 16.09 Clear CLR 15 15     100%     1024.1        
Feb 20 05:55 SSE 9 11.27 Partly Cloudy SCT003 SCT007 15 15     100%     1024.1        
Feb 20 05:35 SSE 9 16.09 Mostly Cloudy BKN003 BKN007 15 15     100%     1023.7        
Feb 20 05:15 SE 8 16.09 Partly Cloudy SCT007 15 15     100%     1023.7        
Feb 20 04:55 SE 5 16.09 Partly Cloudy SCT009 15 15     100%     1023.7        
Feb 20 04:35 SE 8 16.09 Clear CLR 14 14     100%     1023.7        
Feb 20 04:15 Calm 16.09 Clear CLR 14 14     100%     1023.7        
Feb 20 03:55 Calm 16.09 Clear CLR 14 14     100%     1023.7        
Feb 20 03:35 SE 5 16.09 Clear CLR 15 15     100%     1023.4        
Feb 20 03:15 Calm 16.09 Clear CLR 15 15     99%     1023.4        
Feb 20 02:55 SSE 8 16.09 Clear CLR 15 15     99%     1023.4        
Feb 20 02:35 Calm 16.09 Clear CLR 14 14     100%     1023.4        
Feb 20 02:15 S 9 16.09 Clear CLR 15 15     100%     1023.7        
Feb 20 01:55 Calm 16.09 Clear CLR 15 15     97%     1023.7        
Feb 20 01:35 Calm 16.09 Clear CLR 17 15     92%     1023.7        
Feb 20 01:15 Calm 16.09 Clear CLR 17 15     89%     1023.7        
Feb 20 00:55 S 9 16.09 Clear CLR 17 15     88%     1023.4        
Feb 20 00:35 S 13 16.09 Clear CLR 17 15     87%     1023.4        
Feb 20 00:15 S 13 16.09 Clear CLR 18 15     88%     1023.4        
Feb 19 23:55 S 13 16.09 Clear CLR 18 16     88%     1023        
Feb 19 23:35 S 13 16.09 Clear CLR 18 16     88%     1023        
Feb 19 23:15 S 13 16.09 Clear CLR 18 16     88%     1023        
Feb 19 22:55 S 13 16.09 Clear CLR 18 16     85%     1023        
Feb 19 22:35 S 15 16.09 Clear CLR 19 16     84%     1023.4        
Feb 19 22:15 S 11 16.09 Clear CLR 19 16     82%     1023.4        
Feb 19 21:55 S 15 16.09 Clear CLR 19 16     81%     1023        
Feb 19 21:35 S 15 16.09 Clear CLR 19 16     79%     1023        
Feb 19 21:15 SSE 9 16.09 Partly Cloudy SCT070 20 16     76%     1022.7        
Feb 19 20:55 S 13 16.09 Partly Cloudy SCT075 20 16     74%     1022.7        
Feb 19 20:35 SSE 13 16.09 Partly Cloudy SCT055 SCT075 21 16     72%     1022.7        
Feb 19 20:15 S 17 16.09 Cloudy BKN055 OVC075 22 16     69%   22 1022.7        
Feb 19 19:55 SSE 15 16.09 Mostly Cloudy SCT055 BKN075 21 16     70%   21 1022.4        
Feb 19 19:35 S 17 16.09 Partly Cloudy SCT075 21 15     70%     1022.4        
Feb 19 19:15 S 21 16.09 Clear CLR 21 15     69%   21 1022        
Feb 19 18:55 S 18 16.09 Partly Cloudy SCT075 21 15     69%   21 1022        
Feb 19 18:35 SSE 9 16.09 Partly Cloudy SCT075 22 16     69%   22 1021.7        
Feb 19 18:15 SSE 8 16.09 Partly Cloudy SCT070 22 16     68%   22 1021.7        
Feb 19 17:55 SSE 9 16.09 Cloudy SCT055 OVC070 23 16     66%   23 1021.3        
Feb 19 17:35 SSE 9 16.09 Partly Cloudy SCT055 SCT070 SCT080 23 16     63%   23 1021.3        
Feb 19 17:15 SSE 13 16.09 Partly Cloudy SCT055 SCT080 24 16     60%   24 1021.3        
Feb 19 16:55 S 24 16.09 Partly Cloudy SCT055 SCT075 24 16     61%   24 1021        
Feb 19 16:35 SSE 13 16.09 Mostly Cloudy SCT050 SCT065 BKN075 24 16     60%   24 1021        
Feb 19 16:15 SSE 13 16.09 Mostly Cloudy SCT050 SCT065 BKN075 25 16     59%   25 1021        
Feb 19 15:55 SSE 11 16.09 Cloudy SCT050 BKN065 OVC070 24 16     61%   24 1021        
Feb 19 15:35 SSE 15 16.09 Cloudy SCT050 SCT065 OVC070 25 16     59%   25 1021        
Feb 19 15:15 SSE 13 16.09 Cloudy SCT045 SCT050 OVC070 25 16     60%   25 1021.3        
Feb 19 14:55 S 24 16.09 Cloudy SCT046 BKN050 OVC070 25 16     60%   25 1021.3        
Feb 19 14:35 S 21 16.09 Cloudy BKN048 BKN065 OVC070 25 16     61%   25 1021.3        
Feb 19 14:15 S 22 16.09 Cloudy SCT047 BKN055 OVC065 24 16     61%   24 1021.3        
Feb 19 13:55 S 18 16.09 Cloudy SCT047 BKN055 OVC065 24 16     62%   24 1021.7        
Feb 19 13:35 S 24 16.09 Cloudy SCT044 SCT050 OVC055 24 16     59%   24 1021.7        
Feb 19 13:15 S 28 16.09 Cloudy BKN045 OVC055 24 16     62%   24 1021.7        
Feb 19 12:55 S 32 16.09 Mostly Cloudy and Windy SCT036 BKN042 BKN055 24 16     61%   24 1022        
Feb 19 12:35 SSE 26 16.09 Mostly Cloudy SCT034 SCT042 BKN055 24 17     64%   24 1022.4        
Feb 19 12:15 S 30 16.09 Mostly Cloudy SCT034 BKN042 BKN070 24 17     66%   24 1022.7        
Feb 19 11:55 S 24 16.09 Cloudy BKN030 BKN037 OVC070 23 17     70%   23 1023.4        
Feb 19 11:35 S 24 16.09 Mostly Cloudy SCT028 SCT033 BKN070 23 17     71%   23 1023.7        
Feb 19 11:15 S 24 16.09 Partly Cloudy SCT023 SCT030 SCT070 23 18     73%   23 1024.1        
Feb 19 10:55   16.09 Partly Cloudy SCT019 SCT070 22 17     77%   22 1024.1        
Feb 19 10:35 S 24 16.09 Cloudy BKN017 OVC021 21 18     82%     1024.4        
Feb 19 10:15 S 21 16.09 Cloudy OVC013 20 18     88%     1024.7        
Feb 19 09:55 SSE 15 16.09 Cloudy BKN008 OVC013 19 18     95%     1024.7        
Feb 19 09:35 SSE 13 16.09 Cloudy OVC006 18 18     99%     1024.7        
Feb 19 09:15 SSE 11 16.09 Cloudy OVC004 17 17     100%     1024.7        
Feb 19 08:55 SSE 17 16.09 Cloudy OVC004 17 17     100%     1024.7        
Feb 19 08:35 SSE 11 6.44 Fog/Mist OVC002 16 16     100%     1024.4        
Feb 19 08:15 SE 17 8.05 Fog/Mist OVC002 16 16     100%     1024.4        
Feb 19 07:55 SSE 8 6.44 Fog/Mist OVC002 16 16     100%     1024.1        
Feb 19 07:35 SE 5 2.01 Fog/Mist OVC002 15 15     100%     1024.1        
Feb 19 07:15 Calm 2.01 Fog/Mist OVC002 15 15     100%     1023.7        
Feb 19 06:55 SE 5 3.22 Fog/Mist BKN002 OVC011 15 15     100%     1023.7        
Feb 19 06:35 Calm 4.02 Fog/Mist BKN002 OVC011 15 15     100%     1023.4        
Jun 11 22:55   16.09 Clear CLR 23 23     100%   24 1019.7        
Notice The following observation data may not be complete
Jun 11 18:15   11.27 Light Rain SCT046 SCT065 OVC110          %         0    
Notice The following observation data may not be complete
Jun 11 17:35   16.09 Light Rain SCT027 SCT032 OVC048   22      %     1018.3        
Jun 11 16:55 ESE 11 16.09 Mostly Cloudy BKN048 BKN055 31 21     55%   35 1017.3        
Jun 11 15:15 E 11 16.09 Partly Cloudy SCT050 31 20     52%   34 1018.3        
Notice The following observation data may not be complete
Jun 11 14:35   16.09 Mostly Cloudy BKN050          %              
Jun 11 10:15 SSE 17 16.09 Clear CLR 28 19     60%   29 1020.3        
Jun 10 10:15 SSE 5 16.09 Clear CLR 27 19     64%   28 1018        
Jun 10 08:55   0.4 Cloudy OVC080 24 20     76%   25 1018        
Jun 10 08:35 Calm 0.4 Cloudy OVC080 23 20     81%   24 1017.6        
Jun 10 03:55 Calm 16.09 Partly Cloudy SCT075 18 18     100%     1015.2        
Jun 10 02:35 Calm 16.09 Cloudy SCT065 OVC075 18 18     100%     1015.2        
Jun 10 01:55 S 11 16.09 Cloudy OVC075 18 18     97%     1015.2        
Notice The following observation data may not be complete
Jun 09 23:35   16.09 Clear CLR          %              
Notice The following observation data may not be complete
Jun 09 20:35   16.09 Clear CLR          %              
Jun 09 16:15 Calm 16.09 Clear CLR 28 14     43%   28 1013.2        
Jun 09 11:35   16.09 Clear CLR 26 15     51%   26 1015.2        
Jun 09 03:35 Calm 16.09 Clear CLR 15 15     97%     1012.2        
Jun 09 02:55 WNW 5 16.09 Clear   16 15     99%     1012.5        
Jun 09 02:35 Calm 16.09 Clear CLR 16 15     97%     1012.5        
Jun 09 00:15 NNW 9 16.09 Clear CLR 18 15     83%     1012.9        
Jun 08 23:55 NNW 5 16.09 Clear CLR 18 16     85%     1012.9        
Jun 08 16:50 NW 9 16.09 Clear CLR 27 14     45%   26 1011.2        
Jun 08 13:30 WNW 18 16.09 Partly Cloudy SCT050 26 15     50%   26 1012.5        
Jun 08 07:55 N 5 16.09 Clear   19 14     71%     1013.2        
Jun 08 03:15 N 9 16.09 Clear CLR 18 13     73%     1010.5        
Jun 07 17:50   16.09 Clear CLR 28 15     47%   28 1008.8        
Jun 07 08:15 N 11 16.09 Clear CLR 22 18     78%   22 1008.8        
Jun 06 14:55 NE 5 16.09 Rain SCT005 BKN047 OVC070 21 21     99%   22 1006.4   2    
Jun 06 09:15   16.09 Cloudy OVC005 24 23     94%   25 1008.1        
Jun 05 19:35 SSE 8 16.09 Light Rain SCT050 SCT065 BKN095 21 21     99%     1008.1   0